STARLINK-32618, 62045

Orbit data source: Space-Track

STARLINK-32618, 62045 is a payload satellite owned by SpaceX/Seattle (US) in LEO that was launched on Thu, 21 Nov 2024 UTC via an FALCON 9 launch vehicle from the Air Force Eastern Test Range (AFETR). Payload-class satellites include a variety of spacecraft equipped with specific instruments for various scientific and technological missions. These include communications satellites like Starlink; space stations such as the ISS; scientific satellites like the Hubble; Earth observation satellites from companies like Planet Labs, Umbra, and HawkEye 360; GPS; miniature CubeSats for education and research; and military/defense satellites.

Loading next visibility...
Identifier
62045, 2024-216P
Orbit
LEO
Country
Flag of USUS
Related business
Manufacturer
SpaceX/Seattle
Mission
Operational Commercial Communications
Bus & Motor
STARLINK V2M, Unknown motor
Mass
730 kg wet, ~700 kg dry
Launch date (UTC)
2024-11-21 (1 year ago)
Launch vehicle
FALCON 9
Launch site
Air Force Eastern Test Range (AFETR)
Object type
Payload
Rocket body
Debris
Shape & HBR
Box + 2 Pan, 17.7 m
Radar Cross Section
33.884 m², Large (>1 m²)

Expand to show TLE details & history
Last TLE update: 20 hours ago

TLE from 20 hours ago
0 STARLINK-32618
1 62045U 24216P   26106.54929252  .00008885  00000-0  33196-3 0  9999
2 62045  43.0046  42.6922 0000898 296.7979  63.2781 15.27586102 79667
Epoch: 2026-04-16T13:10Z
TLE epoch observation values (Epoch: 2026-04-16T13:10:58.873Z)
Latitude
-0.00002°
Longitude
0.25164°
Altitude
482.53 km
Speed
7.626 km/s
True Right ascension
02h 50m 46s
True Declination
0° 00' 00"
Sunlit
Object was in daylight at epoch
Visualization orbit readout
Latitude
Unknown
Longitude
Unknown
Altitude
Unknown
Speed
Unknown
Apparent Right ascension
Unknown
Apparent Declination
Unknown
Sunlit
N/A
Visualization observer readout
Local Sidereal Time
15:54:06
Azimuth
Unknown
Elevation
Unknown
Doppler factor
Unknown
Orbital elements
Apogee altitude
485.592 km
Perigee altitude
484.359 km
Semi-major axis
6,863.112 km
Eccentricity
0.00009
Inclination
43.0046°
RAAN
42.6922°
Arg. of periapsis
296.7979°
True anomaly
63.28729°
Mean anomaly
63.2781°
Eccentric anomaly
63.2827°
Mean motion
3.81735 °/min
Orbital period
94.31 mins
BSTAR
0.00033196
Loading maneuver chart data...
Computing Atmospheric mass density...
Loading historical data...
Loading historical data...
Loading historical data...
Loading historical data...
Loading historical data...
Loading historical data...
Loading historical data...

Documentation

Showing up to 5 results
|